EW7837 Weather Reports


time (UTC)temp
F
wind
direction
speed
knots
gust
knots
rain 1hr
in
rain 24hr
in
rain mn
in
humidity
%
barometer
mb
20260904171507 78 229 0.0 0.0 0.00 0.00 0.00 66 1010.6
20260904170004 78 250 0.0 0.0 0.00 0.00 0.00 65 1010.6
20260904164600 76 250 0.0 0.0 0.00 0.00 0.00 68 1010.6
20260904163028 75 250 0.0 0.0 0.00 0.00 0.00 70 1010.3
20260904161521 73 250 0.0 0.0 0.00 0.00 0.00 72 1010.5
20260904160020 72 250 0.0 0.0 0.00 0.00 0.00 73 1010.5
20260904154511 71 250 0.0 0.0 0.00 0.00 0.00 77 1010.4
20260904153008 70 250 0.0 0.0 0.00 0.00 0.00 78 1010.0
20260904151503 69 250 0.0 0.0 0.00 0.00 0.00 83 1010.2
20260904150058 68 250 0.0 0.0 0.00 0.00 0.00 86 1010.1
20260904144554 66 250 0.0 0.0 0.00 0.00 0.00 88 1010.1
20260904143054 64 250 0.0 0.0 0.00 0.00 0.00 88 1010.1
20260904141554 63 250 0.0 0.0 0.00 0.00 0.00 88 1009.6
20260904140027 63 250 0.0 0.0 0.00 0.00 0.00 88 1009.8
20260904134516 64 250 0.0 0.0 0.00 0.00 0.00 88 1009.7
20260904133013 64 250 0.0 0.0 0.00 0.00 0.00 88 1009.6
20260904131513 64 250 0.0 0.0 0.00 0.00 0.00 88 1009.5
20260904130025 64 250 0.0 0.0 0.00 0.00 0.00 88 1009.0
20260904124511 64 250 0.0 0.0 0.00 0.00 0.00 88 1009.4
20260904123003 63 250 0.0 0.0 0.00 0.00 0.00 88 1009.2
20260904121502 63 250 0.0 0.0 0.00 0.00 0.00 88 1009.1
20260904120001 63 250 0.0 0.0 0.00 0.00 0.00 87 1009.4
20260904114503 64 250 0.0 0.0 0.00 0.00 0.00 87 1009.1
20260904113041 64 250 0.0 0.0 0.00 0.00 0.00 86 1009.5
20260904111542 64 250 0.0 0.0 0.00 0.00 0.00 85 1009.5
20260904110040 65 250 0.0 0.0 0.00 0.00 0.00 85 1009.3
20260904104530 66 250 0.0 0.0 0.00 0.00 0.00 85 1009.2
20260904103027 67 250 0.0 0.0 0.00 0.00 0.00 85 1009.0
20260904101527 67 250 0.0 0.0 0.00 0.00 0.00 86 1009.2
20260904100023 67 250 0.0 0.0 0.00 0.00 0.00 86 1009.3
20260904094522 67 250 0.0 0.0 0.00 0.00 0.00 86 1009.2
20260904093023 66 250 0.0 0.0 0.00 0.00 0.00 86 1008.9
20260904091522 66 250 0.0 0.0 0.00 0.00 0.00 87 1009.0
20260904090019 66 250 0.0 0.0 0.00 0.00 0.00 87 1009.4
20260904084519 66 250 0.0 0.0 0.00 0.00 0.00 87 1009.5
20260904083019 65 250 0.0 0.0 0.00 0.00 0.00 87 1009.5
20260904081518 65 250 0.0 0.0 0.00 0.00 0.00 87 1009.3
20260904080016 64 250 0.0 0.0 0.00 0.00 0.00 87 1009.4
20260904074516 64 250 0.0 0.0 0.00 0.00 0.00 87 1009.8
20260904073015 64 250 0.0 0.0 0.00 0.00 0.00 87 1009.8
20260904071514 64 250 0.0 0.0 0.00 0.00 0.00 86 1009.6
20260904070050 64 250 0.0 0.0 0.00 0.00 0.00 86 1009.4
20260904064550 64 250 0.0 0.0 0.00 0.00 0.00 86 1009.5
20260904063055 64 250 0.0 0.0 0.00 0.00 0.00 86 1009.6
20260904061539 65 250 0.0 0.0 0.00 0.00 0.00 86 1009.5
20260904060039 65 250 0.0 0.0 0.00 0.00 0.00 85 1009.5
20260904054533 66 250 0.0 0.0 0.00 0.00 0.00 85 1009.5
20260904053024 66 250 0.0 0.0 0.00 0.00 0.00 85 1009.2
20260904051609 66 250 0.0 0.0 0.00 0.00 0.00 84 1009.6
20260904050050 67 250 0.0 0.0 0.00 0.00 0.00 83 1009.5
20260904044549 67 250 0.0 0.0 0.00 0.00 0.00 83 1009.5
20260904043046 68 250 0.0 0.0 0.00 0.00 0.00 82 1009.5
20260904041544 69 250 0.0 0.0 0.00 0.00 0.00 81 1009.0
20260904040044 70 250 0.0 0.0 0.00 0.00 0.00 81 1009.0
20260904034538 70 250 0.0 0.0 0.00 0.00 0.00 82 1009.3
20260904033036 70 250 0.0 0.0 0.00 0.00 0.00 81 1009.2
20260904031534 70 250 0.0 0.0 0.00 0.00 0.00 81 1009.0
20260904030104 71 250 0.0 0.0 0.00 0.00 0.00 80 1008.7
20260904024534 71 250 0.0 0.0 0.00 0.00 0.00 80 1008.7
20260904023034 71 250 0.0 0.0 0.00 0.00 0.00 79 1009.0
20260904021531 72 250 0.0 0.0 0.00 0.00 0.00 78 1009.0
20260904020025 73 250 0.0 0.0 0.00 0.00 0.00 76 1009.0
20260904014526 74 250 0.0 0.0 0.00 0.00 0.00 73 1009.0
20260904013128 75 250 0.0 0.0 0.00 0.00 0.00 72 1008.8
20260904011531 75 250 0.0 0.0 0.00 0.00 0.00 71 1009.0
20260904010038 75 250 0.0 0.0 0.00 0.00 0.00 71 1009.3
20260904004524 76 257 0.0 0.0 0.00 0.00 0.00 71 1009.4
20260904003122 76 275 0.0 0.0 0.00 0.00 0.00 71 1009.3
20260904001527 76 258 0.0 0.0 0.00 0.00 0.00 71 1009.1
20260904000032 76 231 0.0 0.0 0.00 0.00 0.00 70 1008.9
20260903234526 77 265 0.0 0.0 0.00 0.00 0.00 70 1009.0
20260903233026 77 254 0.0 0.0 0.00 0.00 0.00 69 1009.5
20260903231524 77 267 0.0 0.0 0.00 0.00 0.00 67 1009.6
20260903230024 77 178 0.0 0.0 0.00 0.00 0.00 66 1009.6
20260903224522 78 215 0.0 0.0 0.00 0.00 0.00 66 1009.8
20260903223031 78 273 0.0 0.0 0.00 0.00 0.00 66 1009.6
20260903221520 78 230 0.0 0.0 0.00 0.00 0.00 66 1009.6
20260903220019 79 270 0.0 0.0 0.00 0.00 0.00 64 1010.1
20260903214520 79 266 0.9 0.0 0.00 0.00 0.00 65 1010.0
20260903213019 79 273 0.0 0.0 0.00 0.00 0.00 65 1010.1
20260903211515 79 227 0.0 0.0 0.00 0.00 0.00 67 1010.1
20260903210015 79 260 0.0 0.0 0.00 0.00 0.00 66 1010.0
20260903204516 79 267 0.0 0.0 0.00 0.00 0.00 67 1010.1
20260903203012 78 265 0.0 0.0 0.00 0.00 0.00 65 1010.3
20260903201509 78 265 0.9 0.0 0.00 0.00 0.00 68 1010.3
20260903200010 78 221 0.9 0.0 0.00 0.00 0.00 69 1010.5
20260903194505 78 209 0.0 0.0 0.00 0.00 0.00 68 1010.4
20260903193005 78 238 0.0 0.0 0.00 0.00 0.00 67 1010.6
20260903191538 79 234 0.0 0.0 0.00 0.00 0.00 67 1010.7
20260903190033 78 257 0.0 0.0 0.00 0.00 0.00 65 1010.9
20260903184558 79 257 0.0 0.0 0.00 0.00 0.00 65 1011.1
20260903183055 78 243 0.0 0.0 0.00 0.00 0.00 64 1011.0
20260903181549 79 245 0.0 0.0 0.00 0.00 0.00 63 1011.3
20260903180049 78 242 0.0 0.0 0.00 0.00 0.00 64 1011.3
20260903174543 79 253 0.0 0.0 0.00 0.00 0.00 65 1011.4
20260903173039 78 254 0.0 0.0 0.00 0.00 0.00 63 1011.1